Location: *
(51.5000°N, 0.1100°W)
Time: 16:07:30
(UTC+00:00)

Cosmos 1953 - Pass Details

Date: 25 May 2024
Orbit: 510 x 531 km, 82.5° (Epoch: 16 June)

Event Time Altitude Azimuth Distance (km) Brightness Sun altitude
Rises 00:30:13 0° 354° (N) 2,688 7.4 -17.1°
Reaches altitude 10° 00:32:28 10° 1° (N) 1,790 6.2 -17.1°
Maximum altitude 00:36:14 42° 74° (ENE) 762 3.2 -17.0°
Enters shadow 00:38:27 21° 135° (SE) 1,221 3.7 -16.9°
